TimeEST,TemperatureF,Dew PointF,Humidity,Sea Level PressureIn,VisibilityMPH,Wind Direction,Wind SpeedMPH,Gust SpeedMPH,PrecipitationIn,Events,Conditions,WindDirDegrees,DateUTC
12:53 AM,35.1,30.0,82,30.13,10.0,West,5.8,-,N/A,,Overcast,270,2013-03-07 05:53:00
1:53 AM,35.1,30.0,82,30.14,9.0,West,6.9,-,N/A,,Overcast,270,2013-03-07 06:53:00
2:53 AM,34.0,30.0,85,30.13,8.0,West,5.8,-,N/A,,Overcast,280,2013-03-07 07:53:00
3:53 AM,34.0,30.0,85,30.14,8.0,WNW,8.1,-,N/A,,Overcast,290,2013-03-07 08:53:00
4:53 AM,34.0,30.0,85,30.14,8.0,West,8.1,-,N/A,,Overcast,280,2013-03-07 09:53:00
5:53 AM,34.0,28.9,82,30.17,9.0,West,5.8,-,N/A,,Overcast,280,2013-03-07 10:53:00
6:53 AM,34.0,28.0,79,30.19,10.0,WNW,8.1,-,N/A,,Overcast,290,2013-03-07 11:53:00
6:56 AM,33.8,28.4,81,30.18,9.0,WNW,9.2,-,N/A,,Overcast,290,2013-03-07 11:56:00
7:53 AM,33.1,28.0,82,30.22,10.0,West,9.2,-,N/A,,Overcast,280,2013-03-07 12:53:00
8:53 AM,34.0,28.0,79,30.24,10.0,WNW,9.2,-,N/A,,Overcast,290,2013-03-07 13:53:00
9:53 AM,34.0,28.0,79,30.25,10.0,West,12.7,-,N/A,,Overcast,280,2013-03-07 14:53:00
10:53 AM,35.1,28.0,76,30.25,10.0,WNW,9.2,-,N/A,,Overcast,290,2013-03-07 15:53:00
11:53 AM,37.0,28.0,70,30.25,10.0,West,8.1,-,N/A,,Overcast,280,2013-03-07 16:53:00
12:27 PM,37.4,26.6,65,30.24,10.0,WNW,11.5,-,N/A,,Overcast,290,2013-03-07 17:27:00
12:37 PM,37.4,26.6,65,30.24,10.0,West,10.4,-,N/A,,Overcast,280,2013-03-07 17:37:00
12:53 PM,37.9,28.0,68,30.25,10.0,WNW,9.2,-,N/A,,Overcast,300,2013-03-07 17:53:00
1:53 PM,39.0,28.0,65,30.23,10.0,WNW,10.4,-,N/A,,Overcast,300,2013-03-07 18:53:00
2:53 PM,39.0,27.0,62,30.22,10.0,WNW,10.4,-,N/A,,Overcast,290,2013-03-07 19:53:00
3:53 PM,37.9,28.9,70,30.23,10.0,NW,9.2,-,0.00,,Overcast,310,2013-03-07 20:53:00
4:53 PM,39.9,27.0,60,30.23,10.0,NW,9.2,-,N/A,,Partly Cloudy,310,2013-03-07 21:53:00
5:53 PM,37.9,24.1,57,30.25,10.0,WNW,9.2,-,N/A,,Scattered Clouds,290,2013-03-07 22:53:00
6:53 PM,37.0,25.0,62,30.26,10.0,WNW,4.6,-,N/A,,Overcast,300,2013-03-07 23:53:00
7:53 PM,37.0,26.1,65,30.27,10.0,WNW,8.1,-,N/A,,Overcast,300,2013-03-08 00:53:00
8:53 PM,37.0,26.1,65,30.27,10.0,WNW,4.6,-,N/A,,Overcast,290,2013-03-08 01:53:00
9:53 PM,36.0,28.0,73,30.28,10.0,WNW,4.6,-,N/A,,Overcast,290,2013-03-08 02:53:00
10:53 PM,36.0,27.0,70,30.27,10.0,NW,6.9,-,N/A,,Overcast,310,2013-03-08 03:53:00
11:53 PM,35.1,27.0,72,30.27,10.0,NW,5.8,-,N/A,,Overcast,320,2013-03-08 04:53:00